TimeGMT,TemperatureF,Dew PointF,Humidity,Sea Level PressureIn,VisibilityMPH,Wind Direction,Wind SpeedMPH,Gust SpeedMPH,PrecipitationIn,Events,Conditions,WindDirDegrees,DateUTC
12:20 AM,28.4,26.6,93,29.95,6.2,South,3.5,-,N/A,,Unknown,170,2013-01-24 00:20:00
12:50 AM,26.6,23.0,86,29.98,6.2,Calm,Calm,-,N/A,,Unknown,0,2013-01-24 00:50:00
1:20 AM,26.6,23.0,86,29.98,6.2,Calm,Calm,-,N/A,,Unknown,0,2013-01-24 01:20:00
1:50 AM,24.8,23.0,93,29.98,6.2,Calm,Calm,-,N/A,,Unknown,0,2013-01-24 01:50:00
2:20 AM,24.8,23.0,93,29.98,6.2,Calm,Calm,-,N/A,,Unknown,0,2013-01-24 02:20:00
2:50 AM,21.2,21.2,100,29.95,6.2,Calm,Calm,-,N/A,,Unknown,0,2013-01-24 02:50:00
3:20 AM,24.8,23.0,93,29.95,6.2,Calm,Calm,-,N/A,,Partly Cloudy,0,2013-01-24 03:20:00
3:50 AM,26.6,26.6,100,29.95,6.2,SSE,2.3,-,N/A,,Unknown,150,2013-01-24 03:50:00
4:20 AM,26.6,24.8,93,29.95,6.2,SSE,3.5,-,N/A,,Partly Cloudy,160,2013-01-24 04:20:00
4:50 AM,28.4,26.6,93,29.95,6.2,SSE,3.5,-,N/A,,Unknown,150,2013-01-24 04:50:00
5:20 AM,28.4,28.4,100,29.95,6.2,SSE,4.6,-,N/A,,Unknown,150,2013-01-24 05:20:00
5:50 AM,32.0,30.2,93,29.98,6.2,SSE,5.8,-,N/A,,Unknown,160,2013-01-24 05:50:00
6:20 AM,33.8,32.0,93,29.98,6.2,SSE,6.9,-,N/A,,Unknown,160,2013-01-24 06:20:00
6:50 AM,35.6,32.0,87,29.98,6.2,SSE,9.2,-,N/A,,Unknown,160,2013-01-24 06:50:00
7:20 AM,35.6,32.0,87,29.98,6.2,SSE,9.2,-,N/A,,Unknown,160,2013-01-24 07:20:00
7:50 AM,35.6,32.0,87,29.98,6.2,SSE,8.1,-,N/A,,Partly Cloudy,160,2013-01-24 07:50:00
8:20 AM,35.6,32.0,87,29.95,6.2,SSE,9.2,-,N/A,,Partly Cloudy,150,2013-01-24 08:20:00
8:50 AM,35.6,32.0,87,29.95,6.2,SSE,9.2,-,N/A,,Partly Cloudy,150,2013-01-24 08:50:00
9:20 AM,37.4,33.8,87,29.95,6.2,SSE,12.7,-,N/A,,Mostly Cloudy,150,2013-01-24 09:20:00
9:50 AM,39.2,33.8,81,29.95,6.2,SSE,12.7,-,N/A,,Mostly Cloudy,150,2013-01-24 09:50:00
10:20 AM,39.2,33.8,81,29.95,6.2,SSE,15.0,-,N/A,,Partly Cloudy,160,2013-01-24 10:20:00
10:50 AM,39.2,33.8,81,29.95,6.2,SSE,13.8,-,N/A,,Partly Cloudy,160,2013-01-24 10:50:00
11:20 AM,39.2,33.8,81,29.95,6.2,SSE,13.8,-,N/A,Rain,Light Rain,160,2013-01-24 11:20:00
11:50 AM,37.4,35.6,93,29.95,6.2,South,10.4,-,N/A,,Overcast,170,2013-01-24 11:50:00
12:20 PM,37.4,35.6,93,29.95,6.2,South,12.7,-,N/A,Rain,Light Rain,170,2013-01-24 12:20:00
12:50 PM,37.4,35.6,93,29.95,6.2,South,10.4,-,N/A,,Mostly Cloudy,180,2013-01-24 12:50:00
1:20 PM,37.4,33.8,87,29.95,6.2,South,12.7,-,N/A,,Mostly Cloudy,170,2013-01-24 13:20:00
1:50 PM,37.4,33.8,87,29.92,6.2,South,15.0,-,N/A,,Mostly Cloudy,170,2013-01-24 13:50:00
2:20 PM,39.2,33.8,81,29.92,6.2,SSE,17.3,-,N/A,,Mostly Cloudy,160,2013-01-24 14:20:00
2:50 PM,39.2,33.8,81,29.92,6.2,SSE,18.4,-,N/A,,Mostly Cloudy,160,2013-01-24 14:50:00
3:20 PM,39.2,33.8,81,29.89,6.2,SSE,18.4,-,N/A,,Mostly Cloudy,160,2013-01-24 15:20:00
3:50 PM,39.2,33.8,81,29.89,6.2,SSE,19.6,-,N/A,,Mostly Cloudy,160,2013-01-24 15:50:00
4:20 PM,39.2,33.8,81,29.86,6.2,SSE,20.7,-,N/A,,Mostly Cloudy,160,2013-01-24 16:20:00
4:50 PM,39.2,35.6,87,29.86,6.2,SSE,23.0,-,N/A,Rain,Light Rain,160,2013-01-24 16:50:00
5:20 PM,39.2,33.8,81,29.86,6.2,South,16.1,-,N/A,,Mostly Cloudy,170,2013-01-24 17:20:00
5:50 PM,41.0,33.8,76,29.83,6.2,South,16.1,-,N/A,,Mostly Cloudy,170,2013-01-24 17:50:00
6:20 PM,39.2,33.8,81,29.83,6.2,South,17.3,-,N/A,,Scattered Clouds,170,2013-01-24 18:20:00
6:50 PM,41.0,33.8,76,29.83,6.2,South,17.3,-,N/A,,Overcast,170,2013-01-24 18:50:00
7:20 PM,41.0,33.8,76,29.83,6.2,South,15.0,-,N/A,,Mostly Cloudy,170,2013-01-24 19:20:00
7:50 PM,41.0,33.8,76,29.80,6.2,South,16.1,-,N/A,,Scattered Clouds,170,2013-01-24 19:50:00
8:20 PM,41.0,35.6,81,29.80,6.2,South,17.3,-,N/A,,Mostly Cloudy,170,2013-01-24 20:20:00
8:50 PM,41.0,37.4,87,29.80,3.1,South,13.8,-,N/A,,Drizzle,170,2013-01-24 20:50:00
9:20 PM,41.0,39.2,93,29.77,1.7,South,16.1,-,N/A,,Light Drizzle,170,2013-01-24 21:20:00
9:50 PM,41.0,39.2,93,29.77,3.7,South,16.1,-,N/A,,Drizzle,170,2013-01-24 21:50:00
10:20 PM,41.0,39.2,93,29.74,4.3,South,18.4,-,N/A,,Drizzle,170,2013-01-24 22:20:00
10:50 PM,41.0,41.0,100,29.71,4.3,South,18.4,-,N/A,Rain,Light Rain,170,2013-01-24 22:50:00
11:20 PM,42.8,41.0,93,29.71,4.3,South,19.6,-,N/A,Rain,Light Rain,170,2013-01-24 23:20:00
11:50 PM,42.8,41.0,93,29.71,3.7,South,20.7,-,N/A,Rain,Light Rain,180,2013-01-24 23:50:00